User: anonymous   Login
Location: Kitchener
(43.4500°N, 80.5000°W)
Time: 05:42:18
(UTC-05:00)
Language:

ATLAS 5 CENTAUR R/B - Orbit

View from above orbital plane
View from above orbital plane
View from above satellite
View from above satellite

Ground track
Ground track

The orbit data is extracted from the following two-line orbital elements,

1 31702U 07027B   17009.70041304 0.00000170  00000-0  59658-4 0    03
2 31702  63.3692 324.6100 0252315   2.6490 357.3510 14.18534273    01
Epoch (UTC): 09 January 2017 16:48:35
Eccentricity: 0.0252315
inclination: 63.3692°
perigee height: 648 km
apogee height: 1012 km
right ascension of ascending node: 324.6100°
argument of perigee: 2.6490°
revolutions per day: 14.18534273
mean anomaly at epoch: 357.3510°
orbit number at epoch: 0

The dashed part of the orbit path shows where the satellite is in the earth's shadow,  

DLR